Regional Weather Roundup
Issued by NWS

Home | Current Version | Previous Version | Text Only | Print | Product List | Glossary On
Versions: 1 2 3 4 5 6 7 8 9 10 11 12 13 14 15 16 17 18 19 20 21 22 23 24 25 26 27
000
ASUS45 KBOU 240907
RWRCO

WEATHER ROUNDUP FOR COLORADO
NATIONAL WEATHER SERVICE DENVER/BOULDER CO
300 AM MDT MON APR 24 2017

NOTE: "FAIR" INDICATES FEW OR NO CLOUDS BELOW 12000 FEET WITH NO
SIGNIFICANT WEATHER AND/OR OBSTRUCTIONS TO VISIBILITY.

COZ001>005-013-030-031-241000-
...NORTHWEST COLORADO...

CITY           SKY/WX    TMP DP  RH WIND       PRES   REMARKS
CRAIG          CLOUDY    45  39  79 CALM      29.84F
HAYDEN         CLOUDY    41  36  81 W7        29.84F
MEEKER         FAIR      42  38  85 VRB3      29.82F
MOUNT WERNER   NOT AVBL
STEAMBOAT SPGS CLOUDY    41  38  87 SW3       29.84F
WALDEN           N/A     37  32  81 SE5       29.85F
$$

COZ006>008-011-241000-
...WEST CENTRAL VALLEYS...

CITY           SKY/WX    TMP DP  RH WIND       PRES   REMARKS
GRAND JUNCTION FAIR      50  33  52 NW8       29.76R
MONTROSE       FAIR      56  27  32 S3        29.82F
EAGLE          CLOUDY    48  35  60 NW5       29.86F
RIFLE          FAIR      51  38  60 SW7       29.78F
DELTA          FAIR      58  28  31 SW9       29.78R
NUCLA          FAIR      52  27  37 S5        29.87F
$$

COZ017>023-064>068-241000-
...SOUTHWEST COLORADO...

CITY           SKY/WX    TMP DP  RH WIND       PRES   REMARKS
DURANGO        FAIR      45  20  36 W6        29.87F
CORTEZ         FAIR      51  26  37 E5        29.86R
PAGOSA SPRINGS FAIR      49  17  28 CALM      29.91F
TELLURIDE      MOCLDY    46  20  36 CALM      29.99S
WOLF CREEK PAS FAIR      32  16  51 SW20G28   30.10F WCI  20
$$

COZ009-010-012-014-032>034-037-058>063-241000-
...CENTRAL COLORADO...

CITY           SKY/WX    TMP DP  RH WIND       PRES   REMARKS
ASPEN          LGT RAIN  42  38  85 SE8       29.91R
BUENA VISTA    FAIR      49  24  37 SW10G31   29.85R
COPPER MTN     LGT SNOW  34  28  80 W14G24    30.00F WCI  24
BERTHOUD PASS  HAZE      23  12  63 NW22      29.97F VSB<1/4 WCI   8
COTTONWOOD PAS CLOUDY    45  23  42 W14G29    29.92R
GUNNISON       FAIR      52  24  33 NW9G24    29.87F
KREMMLING      LGT RAIN  46  37  71 W12G18    29.88R
LEADVILLE      LGT SNOW  34  30  85 N8        29.94F FOG     WCI  27
MONARCH PASS   CLOUDY    32  21  64 W41G56    30.10R WCI  16
SALIDA         FAIR      54  23  29 W14G26    29.91R
SUNLIGHT       FAIR      30  28  93 SW12      29.99R WCI  21
WILKERSON PASS FAIR      34  23  64 W12G23    29.98S WCI  25
$$

COZ069>075-241000-
...SAN LUIS VALLEY/SANGRE DE CRISTO MOUNTAINS...

CITY           SKY/WX    TMP DP  RH WIND       PRES   REMARKS
ALAMOSA        FAIR      39  23  52 S6        29.86S
LA VETA PASS   FAIR      41  19  42 S28G46    30.04F
SAGUACHE       FAIR      52  21  30 NW14      29.86S
$$

COZ035-036-038>040-241000-
...NORTHERN COLORADO FRONT RANGE...

CITY           SKY/WX    TMP DP  RH WIND       PRES   REMARKS
DENVER INTL AP MOCLDY    49  38  65 NW12      29.67R
DMNS CITY PARK   N/A     53  30  40 N7        29.69R
AURORA         MOCLDY    51  35  54 NW13G33   29.69R
FRONT RANGE AP FAIR      52  37  58 N10G24    29.68R
ERIE MUNI ARPT FAIR      56  33  41 S6        29.66S
BOULDER MUN AP FAIR      52  32  46 CALM      29.66S
CENTENNIAL     FAIR      51  23  33 SW10      29.67R
BROOMFIELD     FAIR      57  32  38 NW16G24   29.69R
FORT COLLINS   FAIR      54  35  48 NW8       29.65R
LONGMONT       FAIR      50  37  61 S3        29.68R
$$

COZ041-046-047-076>085-087-088-241000-
...PIKES PEAK/PALMER DIVIDE AND SOUTHERN FOOTHILLS...

CITY           SKY/WX    TMP DP  RH WIND       PRES   REMARKS
COLO. SPRINGS  FAIR      60  22  23 SW7       29.68F
A. F. ACADEMY  FAIR      61  18  18 SW20G28   29.66F
SCHRIEVER AFB  FAIR      51  26  37 S8        29.69F
ELLICOTT       FAIR     N/A N/A N/A S9        29.67F
FALCON         FAIR      50  22  33 SW6       29.72F
FORT CARSON    FAIR      62  21  20 SW15      29.65F
LIMON          FAIR      36  35  96 N3        29.63F
MONUMENT HILL  FAIR      46  21  36 NW7       29.73F
TRINIDAD       FAIR      56  29  35 NW7       29.74F
$$

COZ042>045-048>051-090-091-241000-
...NORTHEAST COLORADO...

CITY           SKY/WX    TMP DP  RH WIND       PRES   REMARKS
GREELEY ARPT   FAIR      51  38  60 N16       29.64S
AKRON          FAIR      51  38  60 W20G30    29.57R
BURLINGTON     NOT AVBL
WRAY           NOT AVBL
STERLING       FAIR      46  41  81 NW8       29.56R
HOLYOKE        FAIR      45  39  81 SE9       29.52F
FORT MORGAN    FAIR      54  36  51 NW22G28   29.60F
$$

COZ086-089-092>099-241000-
...SOUTHEAST COLORADO...

CITY           SKY/WX    TMP DP  RH WIND       PRES   REMARKS
PUEBLO         FAIR      46  41  82 VRB3      29.62F
LA JUNTA       FAIR      62  35  36 SW22      29.61F
LAMAR          FAIR      61  36  39 SW23      29.55F
SPRINGFIELD      N/A     55  34  45 SW16G28   29.69F
$$




USA.gov is the U.S. government's official web portal to all federal, state and local government web resources and services.